,,Stat6,,Stat2,,Stat8,,Stat9,,Stat10,,Wind1,,Wind1,
time,status,PA1M_AVG,status,PR1M_SUM,status,RH1M_AVG,status,SR1M_AVG,status,TA1M_AVG,status,W1dAve1m,status,W1sAve1m,
2006-02-15, 00:00:01,VALID,917.187,VALID,0,VALID,99.6811,VALID,-0.0169808,VALID,20.6388,VALID,62,VALID,0,
2006-02-15, 00:01:01,VALID,917.159,VALID,0,VALID,99.5781,VALID,0.0169808,VALID,20.6126,VALID,62,VALID,0,
2006-02-15, 00:02:01,VALID,917.15,VALID,0,VALID,99.4547,VALID,0.0339617,VALID,20.6035,VALID,62,VALID,0,
2006-02-15, 00:03:01,VALID,917.13,VALID,0,VALID,99.1,VALID,0,VALID,20.5224,VALID,62,VALID,0.0644985,
2006-02-15, 00:04:01,VALID,917.119,VALID,0,VALID,99.0262,VALID,0,VALID,20.4744,VALID,57,VALID,0.491425,
2006-02-15, 00:05:01,VALID,917.113,VALID,0,VALID,99.3479,VALID,-0.0169808,VALID,20.4583,VALID,40,VALID,0.775436,
2006-02-15, 00:06:01,VALID,917.098,VALID,0,VALID,99.7561,VALID,0,VALID,20.4583,VALID,40,VALID,0.860417,
2006-02-15, 00:07:01,VALID,917.077,VALID,0,VALID,99.9303,VALID,0.0169808,VALID,20.448,VALID,37,VALID,0.723544,
2006-02-15, 00:08:01,VALID,917.075,VALID,0,VALID,99.8184,VALID,0,VALID,20.4095,VALID,37,VALID,0.394531,
2006-02-15, 00:09:01,VALID,917.071,VALID,0,VALID,99.8515,VALID,0.0169808,VALID,20.3871,VALID,37,VALID,0.394781,
2006-02-15, 00:10:00,VALID,917.064,VALID,0,VALID,99.9748,VALID,0.0169808,VALID,20.3871,VALID,38,VALID,0.59654,
2006-02-15, 00:11:00,VALID,917.055,VALID,0,VALID,99.9832,VALID,0.0679233,VALID,20.3737,VALID,51,VALID,0.762091,
2006-02-15, 00:12:00,VALID,917.058,VALID,0,VALID,100,VALID,-0.0169808,VALID,20.364,VALID,52,VALID,0.740104,
2006-02-15, 00:13:00,VALID,917.048,VALID,0,VALID,100,VALID,-0.0339617,VALID,20.3802,VALID,57,VALID,0.821378,
2006-02-15, 00:14:00,VALID,917.048,VALID,0,VALID,100,VALID,-0.0169808,VALID,20.3904,VALID,72,VALID,0.584302,
2006-02-15, 00:15:00,VALID,917.045,VALID,0,VALID,100,VALID,0.0169808,VALID,20.3777,VALID,76,VALID,0.385099,
2006-02-15, 00:16:00,VALID,917.033,VALID,0,VALID,100,VALID,-0.0509425,VALID,20.3871,VALID,82,VALID,0.39234,
2006-02-15, 00:17:00,VALID,917.034,VALID,0,VALID,100,VALID,-0.0169808,VALID,20.3839,VALID,96,VALID,0.454167,
2006-02-15, 00:18:00,VALID,917.038,VALID,0,VALID,100,VALID,0.0169808,VALID,20.4033,VALID,103,VALID,0.412972,
2006-02-15, 00:19:00,VALID,917.05,VALID,0,VALID,100,VALID,0,VALID,20.4098,VALID,111,VALID,0.35377,
2006-02-15, 00:20:00,VALID,917.048,VALID,0,VALID,100,VALID,0.0339617,VALID,20.403,VALID,129,VALID,0.682049,
2006-02-15, 00:21:00,VALID,917.056,VALID,0,VALID,100,VALID,0,VALID,20.3834,VALID,137,VALID,0.832849,
2006-02-15, 00:22:00,VALID,917.06,VALID,0,VALID,100,VALID,-0.0339617,VALID,20.3901,VALID,142,VALID,0.764535,
2006-02-15, 00:23:00,VALID,917.047,VALID,0,VALID,100,VALID,0,VALID,20.3931,VALID,147,VALID,0.700521,
2006-02-15, 00:24:00,VALID,917.041,VALID,0,VALID,100,VALID,-0.0169808,VALID,20.3772,VALID,148,VALID,0.785334,
2006-02-15, 00:25:00,VALID,917.039,VALID,0,VALID,100,VALID,0,VALID,20.3928,VALID,151,VALID,0.87593,
2006-02-15, 00:26:00,VALID,917.031,VALID,0,VALID,100,VALID,0.0169808,VALID,20.3963,VALID,154,VALID,0.90767,
2006-02-15, 00:27:00,VALID,917.025,VALID,0,VALID,100,VALID,-0.0339617,VALID,20.4127,VALID,153,VALID,0.856326,
2006-02-15, 00:28:00,VALID,917.019,VALID,0,VALID,100,VALID,0,VALID,20.4297,VALID,160,VALID,0.846701,
2006-02-15, 00:29:00,VALID,917.021,VALID,0,VALID,100,VALID,0,VALID,20.4396,VALID,158,VALID,0.794829,
2006-02-15, 00:30:00,VALID,917.037,VALID,0,VALID,100,VALID,0,VALID,20.4416,VALID,164,VALID,0.578646,
2006-02-15, 00:31:00,VALID,917.033,VALID,0,VALID,100,VALID,-0.0169808,VALID,20.455,VALID,164,VALID,0.611049,
2006-02-15, 00:32:00,VALID,917.032,VALID,0,VALID,100,VALID,-0.0339617,VALID,20.4712,VALID,164,VALID,0.475632,
2006-02-15, 00:33:00,VALID,917.022,VALID,0,VALID,100,VALID,0,VALID,20.4849,VALID,172,VALID,0.68821,
2006-02-15, 00:34:00,VALID,917.015,VALID,0,VALID,100,VALID,-0.0169808,VALID,20.5075,VALID,199,VALID,0.429869,
2006-02-15, 00:35:00,VALID,917.003,VALID,0,VALID,100,VALID,-0.0169808,VALID,20.5229,VALID,205,VALID,0.397879,
2006-02-15, 00:36:00,VALID,916.989,VALID,0,VALID,100,VALID,0,VALID,20.5326,VALID,215,VALID,0.439546,
2006-02-15, 00:37:00,VALID,916.982,VALID,0,VALID,100,VALID,-0.0169808,VALID,20.559,VALID,246,VALID,0.415179,
2006-02-15, 00:38:00,VALID,916.982,VALID,0,VALID,100,VALID,-0.0169808,VALID,20.5423,VALID,268,VALID,0.323742,
2006-02-15, 00:39:00,VALID,916.971,VALID,0,VALID,100,VALID,-0.0339617,VALID,20.5164,VALID,274,VALID,0.138849,
2006-02-15, 00:40:00,VALID,916.962,VALID,0,VALID,100,VALID,-0.0339617,VALID,20.4998,VALID,274,VALID,0.0364583,
2006-02-15, 00:41:00,VALID,916.939,VALID,0,VALID,100,VALID,0,VALID,20.4774,VALID,279,VALID,0.260789,
2006-02-15, 00:42:00,VALID,916.927,VALID,0,VALID,100,VALID,-0.0169808,VALID,20.4453,VALID,284,VALID,0.370998,
2006-02-15, 00:43:00,VALID,916.904,VALID,0,VALID,100,VALID,0.0169808,VALID,20.4133,VALID,284,VALID,0.332317,
2006-02-15, 00:44:00,VALID,916.869,VALID,0,VALID,100,VALID,0,VALID,20.4127,VALID,284,VALID,0.264583,
2006-02-15, 00:45:00,VALID,916.832,VALID,0,VALID,100,VALID,0.0169808,VALID,20.4001,VALID,284,VALID,0.208274,
2006-02-15, 00:46:00,VALID,916.822,VALID,0,VALID,100,VALID,-0.0169808,VALID,20.3901,VALID,284,VALID,0.211115,
2006-02-15, 00:47:00,VALID,916.808,VALID,0,VALID,100,VALID,0.0169808,VALID,20.3705,VALID,284,VALID,0.447731,
2006-02-15, 00:48:00,VALID,916.8,VALID,0,VALID,100,VALID,-0.0339617,VALID,20.3799,VALID,19,VALID,0.500727,
2006-02-15, 00:49:00,VALID,916.799,VALID,0,VALID,100,VALID,0.0169808,VALID,20.364,VALID,34,VALID,0.375,
2006-02-15, 00:50:00,VALID,916.798,VALID,0,VALID,100,VALID,0.0169808,VALID,20.3637,VALID,34,VALID,0.0333333,
2006-02-15, 00:51:00,VALID,916.798,VALID,0,VALID,100,VALID,0,VALID,20.3675,VALID,34,VALID,0,
2006-02-15, 00:52:00,VALID,916.802,VALID,0,VALID,100,VALID,0,VALID,20.3774,VALID,34,VALID,0,
2006-02-15, 00:53:00,VALID,916.805,VALID,0,VALID,100,VALID,0,VALID,20.3678,VALID,34,VALID,0,
2006-02-15, 00:54:00,VALID,916.811,VALID,0,VALID,100,VALID,0,VALID,20.3484,VALID,34,VALID,0,
2006-02-15, 00:55:00,VALID,916.81,VALID,0,VALID,100,VALID,0,VALID,20.3615,VALID,34,VALID,0,
2006-02-15, 00:56:00,VALID,916.818,VALID,0,VALID,100,VALID,0,VALID,20.3974,VALID,34,VALID,0.134375,
2006-02-15, 00:57:00,VALID,916.817,VALID,0,VALID,100,VALID,-0.0169808,VALID,20.4324,VALID,34,VALID,0.158794,
2006-02-15, 00:58:00,VALID,916.81,VALID,0,VALID,100,VALID,-0.0169808,VALID,20.4521,VALID,34,VALID,0.0724927,
2006-02-15, 00:59:00,VALID,916.805,VALID,0,VALID,100,VALID,-0.0169808,VALID,20.4458,VALID,34,VALID,0.0758168,
2006-02-15, 01:00:00,VALID,916.811,VALID,0,VALID,100,VALID,-0.0169808,VALID,20.4294,VALID,72,VALID,0.384993,
2006-02-15, 01:01:00,VALID,916.796,VALID,0,VALID,100,VALID,0.0339617,VALID,20.4028,VALID,158,VALID,0.47532,
2006-02-15, 01:02:00,VALID,916.792,VALID,0,VALID,100,VALID,-0.0339617,VALID,20.3874,VALID,166,VALID,0.424183,
2006-02-15, 01:03:00,VALID,916.766,VALID,0,VALID,100,VALID,0.0169808,VALID,20.3742,VALID,167,VALID,0.365799,
2006-02-15, 01:04:00,VALID,916.751,VALID,0,VALID,100,VALID,0,VALID,20.3484,VALID,167,VALID,0.065952,
2006-02-15, 01:05:00,VALID,916.738,VALID,0,VALID,100,VALID,0,VALID,20.3319,VALID,167,VALID,0.156977,
2006-02-15, 01:06:00,VALID,916.715,VALID,0,VALID,100,VALID,-0.0169808,VALID,20.323,VALID,167,VALID,0.00852273,
2006-02-15, 01:07:00,VALID,916.704,VALID,0,VALID,100,VALID,0.0169808,VALID,20.3071,VALID,167,VALID,0,
2006-02-15, 01:08:00,VALID,916.692,VALID,0,VALID,100,VALID,0.0169808,VALID,20.2934,VALID,167,VALID,0,
2006-02-15, 01:09:00,VALID,916.697,VALID,0,VALID,100,VALID,-0.0339617,VALID,20.274,VALID,167,VALID,0.150347,
2006-02-15, 01:10:00,VALID,916.701,VALID,0,VALID,100,VALID,0,VALID,20.2907,VALID,162,VALID,0.375545,
2006-02-15, 01:11:00,VALID,916.684,VALID,0,VALID,100,VALID,-0.0169808,VALID,20.2872,VALID,146,VALID,0.564787,
2006-02-15, 01:12:00,VALID,916.676,VALID,0,VALID,100,VALID,0.0169808,VALID,20.2743,VALID,146,VALID,0.615885,
2006-02-15, 01:13:00,VALID,916.659,VALID,0,VALID,100,VALID,0,VALID,20.2875,VALID,146,VALID,0.576527,
2006-02-15, 01:14:00,VALID,916.64,VALID,0,VALID,100,VALID,0,VALID,20.2937,VALID,146,VALID,0.437314,
2006-02-15, 01:15:00,VALID,916.618,VALID,0,VALID,100,VALID,0.0169808,VALID,20.2802,VALID,146,VALID,0.477289,
2006-02-15, 01:16:00,VALID,916.601,VALID,0,VALID,100,VALID,0,VALID,20.281,VALID,143,VALID,0.488735,
2006-02-15, 01:17:00,VALID,916.593,VALID,0,VALID,100,VALID,0,VALID,20.2581,VALID,134,VALID,0.584961,
2006-02-15, 01:18:00,VALID,916.587,VALID,0,VALID,100,VALID,0.0169808,VALID,20.2355,VALID,118,VALID,0.581641,
2006-02-15, 01:19:00,VALID,916.58,VALID,0,VALID,100,VALID,0,VALID,20.2158,VALID,99,VALID,0.933866,
2006-02-15, 01:20:00,VALID,916.582,VALID,0,VALID,100,VALID,0,VALID,20.1905,VALID,91,VALID,0.865234,
2006-02-15, 01:21:00,VALID,916.57,VALID,0,VALID,100,VALID,-0.0169808,VALID,20.1873,VALID,92,VALID,0.72093,
2006-02-15, 01:22:00,VALID,916.562,VALID,0,VALID,100,VALID,0.0509425,VALID,20.1701,VALID,104,VALID,0.576308,
2006-02-15, 01:23:00,VALID,916.546,VALID,0,VALID,100,VALID,0.0509425,VALID,20.1494,VALID,106,VALID,0.253516,
2006-02-15, 01:24:00,VALID,916.548,VALID,0,VALID,100,VALID,0.118866,VALID,20.1469,VALID,107,VALID,0.0127841,
2006-02-15, 01:25:00,VALID,916.52,VALID,0,VALID,100,VALID,0.101885,VALID,20.1534,VALID,107,VALID,0.0152778,
2006-02-15, 01:26:00,VALID,916.499,VALID,0,VALID,100,VALID,0.0679233,VALID,20.1437,VALID,107,VALID,0.00961538,
2006-02-15, 01:27:00,VALID,916.474,VALID,0,VALID,100,VALID,0.118866,VALID,20.1432,VALID,107,VALID,0.0325838,
2006-02-15, 01:28:00,VALID,916.451,VALID,0,VALID,100,VALID,0.101885,VALID,20.13,VALID,107,VALID,0.289435,
2006-02-15, 01:29:00,VALID,916.432,VALID,0,VALID,100,VALID,0.101885,VALID,20.1241,VALID,107,VALID,0.417111,
2006-02-15, 01:30:00,VALID,916.441,VALID,0,VALID,100,VALID,0.0679233,VALID,20.0982,VALID,107,VALID,0.550481,
2006-02-15, 01:31:00,VALID,916.448,VALID,0,VALID,100,VALID,0.101885,VALID,20.0761,VALID,108,VALID,0.767299,
2006-02-15, 01:32:00,VALID,916.459,VALID,0,VALID,100,VALID,0.0679233,VALID,20.0823,VALID,108,VALID,0.85883,
2006-02-15, 01:33:00,VALID,916.46,VALID,0,VALID,100,VALID,0.0849042,VALID,20.1149,VALID,101,VALID,0.925595,
2006-02-15, 01:34:00,VALID,916.455,VALID,0,VALID,100,VALID,0.0679233,VALID,20.1241,VALID,106,VALID,0.843403,
2006-02-15, 01:35:00,VALID,916.439,VALID,0,VALID,100,VALID,0.0849042,VALID,20.1529,VALID,111,VALID,0.687145,
2006-02-15, 01:36:00,VALID,916.429,VALID,0,VALID,100,VALID,0.101885,VALID,20.1599,VALID,114,VALID,0.372917,
2006-02-15, 01:37:00,VALID,916.409,VALID,0,VALID,100,VALID,0,VALID,20.1577,VALID,114,VALID,0.221037,
2006-02-15, 01:38:00,VALID,916.385,VALID,0,VALID,100,VALID,-0.0339617,VALID,20.1485,VALID,114,VALID,0.564453,
2006-02-15, 01:39:00,VALID,916.357,VALID,0,VALID,100,VALID,-0.0509425,VALID,20.1487,VALID,112,VALID,0.686012,
2006-02-15, 01:40:00,VALID,916.324,VALID,0,VALID,100,VALID,-0.0339617,VALID,20.1684,VALID,100,VALID,0.742365,
2006-02-15, 01:41:00,VALID,916.295,VALID,0,VALID,100,VALID,-0.0679233,VALID,20.1746,VALID,98,VALID,0.758384,
2006-02-15, 01:42:00,VALID,916.268,VALID,0,VALID,100,VALID,-0.0169808,VALID,20.2136,VALID,97,VALID,1.04688,
2006-02-15, 01:43:00,VALID,916.228,VALID,0,VALID,100,VALID,-0.0679233,VALID,20.2069,VALID,93,VALID,0.988281,
2006-02-15, 01:44:00,VALID,916.22,VALID,0,VALID,100,VALID,0,VALID,20.1706,VALID,98,VALID,1.10774,
2006-02-15, 01:45:00,VALID,916.199,VALID,0,VALID,100,VALID,-0.0509425,VALID,20.1584,VALID,99,VALID,1.07924,
2006-02-15, 01:46:00,VALID,916.183,VALID,0,VALID,100,VALID,0,VALID,20.1452,VALID,99,VALID,0.981027,
2006-02-15, 01:47:00,VALID,916.145,VALID,0,VALID,100,VALID,-0.0339617,VALID,20.1455,VALID,97,VALID,0.882267,
2006-02-15, 01:48:00,VALID,916.101,VALID,0,VALID,100,VALID,-0.0509425,VALID,20.1485,VALID,103,VALID,0.994673,
2006-02-15, 01:49:00,VALID,916.044,VALID,0,VALID,100,VALID,-0.0339617,VALID,20.1452,VALID,108,VALID,0.768043,
2006-02-15, 01:50:00,VALID,915.979,VALID,0,VALID,100,VALID,-0.0509425,VALID,20.1455,VALID,113,VALID,0.774554,
2006-02-15, 01:51:00,VALID,915.927,VALID,0,VALID,100,VALID,-0.0169808,VALID,20.1358,VALID,120,VALID,0.870908,
2006-02-15, 01:52:00,VALID,915.863,VALID,0,VALID,100,VALID,0,VALID,20.1355,VALID,121,VALID,0.738451,
2006-02-15, 01:53:00,VALID,915.818,VALID,0,VALID,100,VALID,-0.0339617,VALID,20.1363,VALID,107,VALID,0.884233,
2006-02-15, 01:54:00,VALID,915.768,VALID,0,VALID,100,VALID,-0.0169808,VALID,20.1261,VALID,105,VALID,0.893483,
2006-02-15, 01:55:00,VALID,915.72,VALID,0,VALID,100,VALID,-0.0169808,VALID,20.1485,VALID,106,VALID,1.0992,
2006-02-15, 01:56:00,VALID,915.68,VALID,0,VALID,100,VALID,-0.0169808,VALID,20.1773,VALID,98,VALID,0.998183,
2006-02-15, 01:57:00,VALID,915.656,VALID,0,VALID,100,VALID,-0.0169808,VALID,20.1713,VALID,89,VALID,1.13058,
2006-02-15, 01:58:00,VALID,915.633,VALID,0,VALID,100,VALID,-0.0339617,VALID,20.1514,VALID,89,VALID,1.20469,
2006-02-15, 01:59:00,VALID,915.606,VALID,0,VALID,100,VALID,-0.0509425,VALID,20.1315,VALID,83,VALID,0.637277,
2006-02-15, 02:00:00,VALID,915.594,VALID,0,VALID,100,VALID,0,VALID,20.1455,VALID,89,VALID,0.777166,
2006-02-15, 02:01:00,VALID,915.576,VALID,0,VALID,100,VALID,0.0339617,VALID,20.1582,VALID,91,VALID,0.74907,
2006-02-15, 02:02:00,VALID,915.573,VALID,0,VALID,100,VALID,-0.0339617,VALID,20.1582,VALID,100,VALID,0.744234,
2006-02-15, 02:03:00,VALID,915.577,VALID,0,VALID,100,VALID,-0.0339617,VALID,20.1679,VALID,125,VALID,0.740699,
2006-02-15, 02:04:00,VALID,915.582,VALID,0,VALID,100,VALID,-0.0509425,VALID,20.1713,VALID,146,VALID,1.04688,
2006-02-15, 02:05:00,VALID,915.583,VALID,0,VALID,100,VALID,0,VALID,20.1942,VALID,143,VALID,0.940163,
2006-02-15, 02:06:00,VALID,915.596,VALID,0,VALID,100,VALID,-0.0339617,VALID,20.2196,VALID,150,VALID,0.991667,
2006-02-15, 02:07:00,VALID,915.59,VALID,0,VALID,100,VALID,0.0509425,VALID,20.2479,VALID,164,VALID,0.782031,
2006-02-15, 02:08:00,VALID,915.566,VALID,0,VALID,100,VALID,0.0849042,VALID,20.2504,VALID,175,VALID,1.10342,
2006-02-15, 02:09:00,VALID,915.545,VALID,0,VALID,100,VALID,0.101885,VALID,20.2601,VALID,169,VALID,0.908249,
2006-02-15, 02:10:00,VALID,915.535,VALID,0,VALID,100,VALID,0.0509425,VALID,20.2474,VALID,173,VALID,0.747159,
2006-02-15, 02:11:00,VALID,915.524,VALID,0,VALID,100,VALID,0.0509425,VALID,20.2601,VALID,176,VALID,0.463415,
2006-02-15, 02:12:00,VALID,915.524,VALID,0,VALID,100,VALID,0.0849042,VALID,20.2566,VALID,175,VALID,0.841146,
2006-02-15, 02:13:00,VALID,915.519,VALID,0,VALID,100,VALID,0.0849042,VALID,20.2533,VALID,129,VALID,0.715909,
2006-02-15, 02:14:00,VALID,915.519,VALID,0,VALID,100,VALID,0.118866,VALID,20.2596,VALID,109,VALID,0.428267,
2006-02-15, 02:15:00,VALID,915.528,VALID,0,VALID,100,VALID,0.0849042,VALID,20.2663,VALID,111,VALID,0.184261,
2006-02-15, 02:16:00,VALID,915.556,VALID,0,VALID,100,VALID,0.0849042,VALID,20.2897,VALID,139,VALID,1.24809,
2006-02-15, 02:17:00,VALID,915.601,VALID,0,VALID,100,VALID,0.101885,VALID,20.2924,VALID,133,VALID,1.08003,
2006-02-15, 02:18:00,VALID,915.653,VALID,0,VALID,100,VALID,0.0509425,VALID,20.2959,VALID,144,VALID,0.756925,
2006-02-15, 02:19:00,VALID,915.725,VALID,0,VALID,100,VALID,0.0849042,VALID,20.2986,VALID,171,VALID,1.16879,
2006-02-15, 02:20:00,VALID,915.796,VALID,0,VALID,100,VALID,0.0509425,VALID,20.2849,VALID,206,VALID,1.07222,
2006-02-15, 02:21:00,VALID,915.876,VALID,0,VALID,100,VALID,0.101885,VALID,20.3016,VALID,202,VALID,0.964311,
2006-02-15, 02:22:00,VALID,915.966,VALID,0,VALID,100,VALID,0.0849042,VALID,20.3085,VALID,179,VALID,1.3266,
2006-02-15, 02:23:00,VALID,916.037,VALID,0,VALID,100,VALID,0.0849042,VALID,20.3115,VALID,190,VALID,1.24814,
2006-02-15, 02:24:00,VALID,916.099,VALID,0,VALID,100,VALID,0.118866,VALID,20.3177,VALID,194,VALID,0.929142,
2006-02-15, 02:25:00,VALID,916.134,VALID,0,VALID,100,VALID,0.101885,VALID,20.3344,VALID,194,VALID,0.880814,
2006-02-15, 02:26:00,VALID,916.162,VALID,0,VALID,100,VALID,0.0849042,VALID,20.3508,VALID,175,VALID,0.889717,
2006-02-15, 02:27:00,VALID,916.174,VALID,0,VALID,100,VALID,0.0849042,VALID,20.35,VALID,174,VALID,1.14007,
2006-02-15, 02:28:00,VALID,916.155,VALID,0,VALID,100,VALID,0.101885,VALID,20.3702,VALID,171,VALID,0.765439,
2006-02-15, 02:29:00,VALID,916.117,VALID,0,VALID,100,VALID,0.0849042,VALID,20.3729,VALID,168,VALID,0.306974,
2006-02-15, 02:30:00,VALID,916.08,VALID,0,VALID,100,VALID,0.101885,VALID,20.3667,VALID,168,VALID,0.0744048,
2006-02-15, 02:31:00,VALID,916.045,VALID,0,VALID,100,VALID,0.118866,VALID,20.3597,VALID,165,VALID,0.362926,
2006-02-15, 02:32:00,VALID,915.999,VALID,0,VALID,100,VALID,0.118866,VALID,20.3506,VALID,155,VALID,0.572917,
2006-02-15, 02:33:00,VALID,915.979,VALID,0,VALID,100,VALID,0.101885,VALID,20.3533,VALID,149,VALID,0.866642,
2006-02-15, 02:34:00,VALID,915.956,VALID,0,VALID,100,VALID,0.0849042,VALID,20.3503,VALID,151,VALID,0.970109,
2006-02-15, 02:35:00,VALID,915.967,VALID,0,VALID,100,VALID,0.0679233,VALID,20.3603,VALID,163,VALID,1.28525,
2006-02-15, 02:36:00,VALID,915.961,VALID,0,VALID,100,VALID,0.0339617,VALID,20.3737,VALID,163,VALID,1.11868,
2006-02-15, 02:37:00,VALID,915.964,VALID,0,VALID,100,VALID,0.0339617,VALID,20.3774,VALID,147,VALID,0.812881,
2006-02-15, 02:38:00,VALID,915.954,VALID,0,VALID,100,VALID,0,VALID,20.3844,VALID,144,VALID,0.968349,
2006-02-15, 02:39:00,VALID,915.953,VALID,0,VALID,100,VALID,-0.0169808,VALID,20.3715,VALID,142,VALID,0.533398,
2006-02-15, 02:40:00,VALID,915.945,VALID,0,VALID,100,VALID,-0.0169808,VALID,20.3583,VALID,112,VALID,0.832667,
2006-02-15, 02:41:00,VALID,915.925,VALID,0,VALID,100,VALID,0.0169808,VALID,20.3643,VALID,97,VALID,0.963356,
2006-02-15, 02:42:00,VALID,915.924,VALID,0,VALID,100,VALID,0,VALID,20.3774,VALID,115,VALID,0.815407,
2006-02-15, 02:43:00,VALID,915.887,VALID,0,VALID,100,VALID,0.0339617,VALID,20.3772,VALID,103,VALID,0.820313,
2006-02-15, 02:44:00,VALID,915.863,VALID,0,VALID,100,VALID,0.0509425,VALID,20.3963,VALID,103,VALID,0.817042,
2006-02-15, 02:45:00,VALID,915.831,VALID,0,VALID,100,VALID,0.0509425,VALID,20.4095,VALID,115,VALID,1.04799,
2006-02-15, 02:46:00,VALID,915.8,VALID,0,VALID,100,VALID,0.0169808,VALID,20.4262,VALID,122,VALID,1.22911,
2006-02-15, 02:47:00,VALID,915.776,VALID,0,VALID,100,VALID,0,VALID,20.4356,VALID,128,VALID,0.706936,
2006-02-15, 02:48:00,VALID,915.754,VALID,0,VALID,100,VALID,0,VALID,20.4521,VALID,129,VALID,0.689732,
2006-02-15, 02:49:00,VALID,915.727,VALID,0,VALID,100,VALID,0,VALID,20.4453,VALID,128,VALID,1.08158,
2006-02-15, 02:50:00,VALID,915.702,VALID,0,VALID,100,VALID,0,VALID,20.4515,VALID,120,VALID,1.47227,
2006-02-15, 02:51:00,VALID,915.705,VALID,0,VALID,100,VALID,0.0169808,VALID,20.4612,VALID,120,VALID,1.3484,
2006-02-15, 02:52:00,VALID,915.722,VALID,0,VALID,100,VALID,0.0169808,VALID,20.461,VALID,128,VALID,1.38948,
2006-02-15, 02:53:00,VALID,915.758,VALID,0,VALID,100,VALID,0.0169808,VALID,20.4674,VALID,107,VALID,1.40149,
2006-02-15, 02:54:00,VALID,915.818,VALID,0,VALID,100,VALID,0.0339617,VALID,20.4647,VALID,93,VALID,1.21152,
2006-02-15, 02:55:00,VALID,915.85,VALID,0,VALID,100,VALID,0,VALID,20.4752,VALID,82,VALID,1.10449,
2006-02-15, 02:56:00,VALID,915.876,VALID,0,VALID,100,VALID,0,VALID,20.455,VALID,75,VALID,1.45234,
2006-02-15, 02:57:00,VALID,915.899,VALID,0,VALID,100,VALID,0.0169808,VALID,20.4548,VALID,76,VALID,1.63223,
2006-02-15, 02:58:00,VALID,915.917,VALID,0,VALID,100,VALID,0.0169808,VALID,20.4714,VALID,85,VALID,1.42935,
2006-02-15, 02:59:00,VALID,915.898,VALID,0,VALID,100,VALID,0.0169808,VALID,20.4749,VALID,78,VALID,1.18405,
2006-02-15, 03:00:00,VALID,915.894,VALID,0,VALID,100,VALID,0.0169808,VALID,20.4771,VALID,31,VALID,0.955611,
2006-02-15, 03:01:00,VALID,915.892,VALID,0,VALID,100,VALID,0,VALID,20.5033,VALID,50,VALID,0.558499,
2006-02-15, 03:02:00,VALID,915.89,VALID,0,VALID,100,VALID,0.0169808,VALID,20.5067,VALID,72,VALID,0.78343,
2006-02-15, 03:03:00,VALID,915.895,VALID,0,VALID,100,VALID,0.0339617,VALID,20.5105,VALID,82,VALID,0.918818,
2006-02-15, 03:04:00,VALID,915.9,VALID,0,VALID,100,VALID,0.0169808,VALID,20.4973,VALID,71,VALID,0.923295,
2006-02-15, 03:05:00,VALID,915.907,VALID,0,VALID,100,VALID,0.0339617,VALID,20.5038,VALID,81,VALID,0.406631,
2006-02-15, 03:06:00,VALID,915.914,VALID,0,VALID,100,VALID,0,VALID,20.5038,VALID,91,VALID,0.461293,
2006-02-15, 03:07:00,VALID,915.908,VALID,0,VALID,100,VALID,0.0169808,VALID,20.4871,VALID,121,VALID,0.63529,
2006-02-15, 03:08:00,VALID,915.904,VALID,0,VALID,100,VALID,0.0339617,VALID,20.4933,VALID,146,VALID,1.00618,
2006-02-15, 03:09:00,VALID,915.895,VALID,0,VALID,100,VALID,0,VALID,20.5092,VALID,145,VALID,1.03262,
2006-02-15, 03:10:00,VALID,915.9,VALID,0,VALID,100,VALID,0.0169808,VALID,20.5256,VALID,143,VALID,0.536882,
2006-02-15, 03:11:00,VALID,915.893,VALID,0,VALID,100,VALID,0.0169808,VALID,20.5647,VALID,127,VALID,0.399891,
2006-02-15, 03:12:00,VALID,915.881,VALID,0,VALID,100,VALID,0.0169808,VALID,20.5749,VALID,137,VALID,1.04549,
2006-02-15, 03:13:00,VALID,915.886,VALID,0,VALID,99.955,VALID,-0.0169808,VALID,20.5975,VALID,131,VALID,1.23419,
2006-02-15, 03:14:00,VALID,915.849,VALID,0,VALID,99.723,VALID,0,VALID,20.6201,VALID,135,VALID,1.22507,
2006-02-15, 03:15:00,VALID,915.825,VALID,0,VALID,99.456,VALID,0.0169808,VALID,20.6549,VALID,141,VALID,0.451527,
2006-02-15, 03:16:00,VALID,915.789,VALID,0,VALID,99.3238,VALID,0.0169808,VALID,20.6778,VALID,86,VALID,0.353849,
2006-02-15, 03:17:00,VALID,915.748,VALID,0,VALID,99.175,VALID,0,VALID,20.698,VALID,83,VALID,0.389672,
2006-02-15, 03:18:00,VALID,915.711,VALID,0,VALID,99.0656,VALID,0,VALID,20.7045,VALID,83,VALID,0.347656,
2006-02-15, 03:19:00,VALID,915.69,VALID,0,VALID,99.0262,VALID,0.0169808,VALID,20.701,VALID,83,VALID,0.0287064,
2006-02-15, 03:20:00,VALID,915.67,VALID,0,VALID,99.0567,VALID,-0.0169808,VALID,20.7209,VALID,83,VALID,0.111111,
2006-02-15, 03:21:00,VALID,915.676,VALID,0,VALID,99.1101,VALID,0.0169808,VALID,20.7228,VALID,42,VALID,0.40734,
2006-02-15, 03:22:00,VALID,915.686,VALID,0,VALID,99.0542,VALID,0,VALID,20.7239,VALID,34,VALID,0.200036,
2006-02-15, 03:23:00,VALID,915.692,VALID,0,VALID,98.9397,VALID,-0.0169808,VALID,20.7136,VALID,36,VALID,0.426491,
2006-02-15, 03:24:00,VALID,915.71,VALID,0,VALID,98.838,VALID,0.0169808,VALID,20.698,VALID,52,VALID,0.559956,
2006-02-15, 03:25:00,VALID,915.725,VALID,0,VALID,98.8456,VALID,-0.0169808,VALID,20.691,VALID,78,VALID,0.806597,
2006-02-15, 03:26:00,VALID,915.727,VALID,0,VALID,98.9919,VALID,0.0169808,VALID,20.6689,VALID,50,VALID,1.06577,
2006-02-15, 03:27:00,VALID,915.726,VALID,0,VALID,99.1228,VALID,-0.0169808,VALID,20.6393,VALID,51,VALID,1.19661,
2006-02-15, 03:28:00,VALID,915.72,VALID,0,VALID,99.2106,VALID,0.0169808,VALID,20.6172,VALID,50,VALID,1.024,
2006-02-15, 03:29:00,VALID,915.719,VALID,0,VALID,99.3377,VALID,0,VALID,20.604,VALID,50,VALID,0.847155,
2006-02-15, 03:30:00,VALID,915.689,VALID,0,VALID,99.4395,VALID,0.0169808,VALID,20.5776,VALID,54,VALID,0.563519,
2006-02-15, 03:31:00,VALID,915.664,VALID,0,VALID,99.512,VALID,0,VALID,20.5717,VALID,53,VALID,0.382999,
2006-02-15, 03:32:00,VALID,915.641,VALID,0,VALID,99.5908,VALID,-0.0169808,VALID,20.5525,VALID,53,VALID,0.0571057,
2006-02-15, 03:33:00,VALID,915.629,VALID,0,VALID,99.6468,VALID,0.0339617,VALID,20.5517,VALID,53,VALID,0.155185,
2006-02-15, 03:34:00,VALID,915.633,VALID,0,VALID,99.6696,VALID,0,VALID,20.5356,VALID,53,VALID,0.274926,
2006-02-15, 03:35:00,VALID,915.641,VALID,0,VALID,99.7447,VALID,0.0509425,VALID,20.5393,VALID,53,VALID,0.127477,
2006-02-15, 03:36:00,VALID,915.649,VALID,0,VALID,99.7879,VALID,0,VALID,20.5229,VALID,53,VALID,0.0090843,
2006-02-15, 03:37:00,VALID,915.671,VALID,0,VALID,99.8337,VALID,0,VALID,20.5167,VALID,53,VALID,0,
2006-02-15, 03:38:00,VALID,915.694,VALID,0,VALID,99.9151,VALID,-0.0169808,VALID,20.5205,VALID,53,VALID,0,
2006-02-15, 03:39:00,VALID,915.709,VALID,0,VALID,99.9545,VALID,-0.0169808,VALID,20.5132,VALID,53,VALID,0.18192,
2006-02-15, 03:40:00,VALID,915.733,VALID,0,VALID,99.9481,VALID,-0.0339617,VALID,20.4965,VALID,69,VALID,0.620908,
2006-02-15, 03:41:00,VALID,915.769,VALID,0,VALID,99.8896,VALID,-0.0339617,VALID,20.5167,VALID,96,VALID,0.787729,
2006-02-15, 03:42:00,VALID,915.784,VALID,0,VALID,99.8299,VALID,0,VALID,20.5234,VALID,100,VALID,0.864258,